Elk Grove Village, Illinois, United States (60007)
Lat: 42.00N, Lon: 87.97W
Wx Zone: ILZ014
Local Info
Past Weather Observations for Today

NOTE: This archive is for the closest National Weather Service station to Elk Grove Village. Information may differ from the station used for current weather conditions.

Click here for Long-term Archive

Time Weather Temperature Dewpoint Humidity Pressure Winds Precip Visibility
22:51
Mostly Cloudy
73°F / 23°C 66°F / 19°C 78% 30.01 in
(1016 mb)
ENE 8.1 mph
(ENE 13 kph)
- 10SM
21:51
Partly Cloudy
73°F / 23°C 64°F / 18°C 74% 30.04 in
(1017 mb)
E 5.8 mph
(E 9 kph)
- 10SM
20:51
Mostly Cloudy
75°F / 24°C 64°F / 18°C 69% 30.01 in
(1016 mb)
ENE 6.9 mph
(ENE 11 kph)
- 10SM
19:51
Mostly Cloudy
77°F / 25°C 64°F / 18°C 65% 30.01 in
(1016 mb)
NE 6.9 mph
(NE 11 kph)
- 10SM
18:51
Mostly Cloudy
79°F / 26°C 64°F / 18°C 61% 30.01 in
(1016 mb)
ENE 10.4 mph
(ENE 17 kph)
- 10SM
17:51
Mostly Cloudy
81°F / 27°C 64°F / 18°C 58% 29.98 in
(1015 mb)
ENE 10.4 mph
(ENE 17 kph)
- 10SM
16:51
Mostly Cloudy
84°F / 29°C 63°F / 17°C 48% 29.98 in
(1015 mb)
ENE 11.5 mph
(ENE 19 kph)
- 10SM
15:51
Mostly Cloudy
84°F / 29°C 63°F / 17°C 48% 29.98 in
(1015 mb)
ENE 12.7 mph
(ENE 20 kph)
- 10SM
14:51
Partly Cloudy
88°F / 31°C 61°F / 16°C 40% 30.01 in
(1016 mb)
ENE 13.8 mph
(ENE 22 kph)
- 10SM
13:51
Partly Cloudy
88°F / 31°C 59°F / 15°C 38% 30.01 in
(1016 mb)
ESE 13.8 mph
(ESE 22 kph)
- 10SM
12:51
Partly Cloudy
88°F / 31°C 61°F / 16°C 40% 30.01 in
(1016 mb)
SE 11.5 mph
(SE 19 kph)
- 10SM
11:51
Partly Cloudy
86°F / 30°C 61°F / 16°C 43% 30.01 in
(1016 mb)
ESE 15 mph
(ESE 24 kph)
- 10SM
10:51
Partly Cloudy
84°F / 29°C N/A 45% 30.01 in
(1016 mb)
E 12.7 mph
(E 20 kph)
- 10SM
09:51
Partly Cloudy
82°F / 28°C 63°F / 17°C 51% 30.01 in
(1016 mb)
E 15 mph
(E 24 kph)
- 10SM
08:51
Partly Cloudy
81°F / 27°C 70°F / 21°C 70% 30.04 in
(1017 mb)
E 10.4 mph
(E 17 kph)
- 10SM
07:51
Partly Cloudy
79°F / 26°C 72°F / 22°C 79% 30.04 in
(1017 mb)
E 6.9 mph
(E 11 kph)
- 10SM
06:51
Partly Cloudy
75°F / 24°C 70°F / 21°C 83% 30.01 in
(1016 mb)
NE 4.6 mph
(NE 7 kph)
- 9SM
05:51
Mostly Cloudy
72°F / 22°C 68°F / 20°C 88% 29.98 in
(1015 mb)
NE 3.5 mph
(NE 6 kph)
- 9SM
04:51
Mostly Cloudy
70°F / 21°C 66°F / 19°C 88% 29.98 in
(1015 mb)
N 4.6 mph
(N 7 kph)
- 9SM
03:51
Partly Cloudy
68°F / 20°C 64°F / 18°C 88% 29.98 in
(1015 mb)
N 3.5 mph
(N 6 kph)
- 10SM
02:51
Partly Cloudy
70°F / 21°C 66°F / 19°C 88% 29.98 in
(1015 mb)
NNE 4.6 mph
(NNE 7 kph)
- 10SM
01:51
Partly Cloudy
70°F / 21°C 64°F / 18°C 83% 29.98 in
(1015 mb)
N 4.6 mph
(N 7 kph)
- 10SM
00:51
Mostly Cloudy
70°F / 21°C 64°F / 18°C 83% 29.98 in
(1015 mb)
N 4.6 mph
(N 7 kph)
- 10SM
Time Weather Temperature Dewpoint Humidity Pressure Winds Precip Visibility


Weather for websites

WeatherForYou.com, LLC is not responsible for any damages or problems caused by this service. Current weather conditions are obtained from the closest station including government and personal stations which may have varying degrees of accuracy. Weather forecasts are derived from the NOAA NDFD. Like all things, this site belongs to Jesus Christ... He just trusts us to maintain it. If you have any questions or comments email webmaster@weatherforyou.com

Copyright © 2015, WeatherForYou.com LLC. All rights reserved.